Weather History for KAEX - February, 2004

Change the Weather History Date:

Sunday, February 22, 2004

  Actual Average Record
Temperature  
Mean Temperature 56 °F 54 °F  
Max Temperature 72 °F 65 °F 82 °F (1993)
Min Temperature 41 °F 43 °F 21 °F (1968)
Degree Days  
Heating Degree Days 8 12  
Month to date heating degree days 308  
Since 1 July heating degree days 1599  
Growing Degree Days 6 (Base 50)    
Moisture  
Dew Point 41 °F    
Average Humidity 62    
Maximum Humidity 93    
Minimum Humidity 28    
Precipitation  
Precipitation 0.04 in 0.16 in 2.40 in (1969)
Month to date precipitation 3.51  
Year to date precipitation 8.73  
Snow  
Snow 0.00 in - 0.00 in ()
Month to date snowfall  
Since 1 July snowfall  
Snow Depth -    
Sea Level Pressure  
Sea Level Pressure 30.09 in    
Wind  
Wind Speed 3 mph (East)    
Max Wind Speed 10 mph    
Max Gust Speed -    
Visibility 10 miles    
Events Rain , Thunderstorm    
T = Trace of Precipitation, MM = Missing Value Source: NWS Daily Summary

Daily Weather History Graph

Daily Weather History Graph

Search for Another Location

Airport or City:

Trip Planner

Search our weather history database for the weather conditions in past years. The results will help you decide how hot, cold, wet, or windy it might be!

Date:

Astronomy

Feb. 22, 2004 Rise Set
Actual Time 6:45 AM CST 6:02 PM CST
Civil Twilight 6:20 AM CST 6:27 PM CST
Nautical Twilight 5:52 AM CST 6:55 PM CST
Astronomical Twilight 5:24 AM CST 7:23 PM CST
Moon 8:18 AM CST (2/22) 8:33 PM CST (2/22)
Length of Visible Light 12h 06m
Length of Day
11h 17m
Waxing Crescent, 6% of the Moon is Illuminated
Feb 22
Waxing Crescent
Feb 27
First Quarter
Mar 6
Full
Mar 13
Last Quarter
Mar 20
New

Hourly Weather History & Observations

Time (CST) Temp. Windchill Dew Point Humidity Pressure Visibility Wind Dir Wind Speed Gust Speed Precip Events Conditions
12:53 AM 44.1 °F - 37.9 °F 79% 30.11 in 10.0 mi Calm Calm - N/A   Clear
1:53 AM 41.0 °F - 39.0 °F 93% 30.11 in 10.0 mi Calm Calm - N/A   Clear
2:53 AM 41.0 °F - 37.9 °F 89% 30.12 in 10.0 mi Calm Calm - N/A   Clear
3:53 AM 43.0 °F - 37.9 °F 82% 30.11 in 10.0 mi Calm Calm - N/A   Clear
4:53 AM 42.1 °F - 39.0 °F 89% 30.10 in 10.0 mi Calm Calm - N/A   Clear
5:53 AM 42.1 °F - 39.9 °F 92% 30.12 in 10.0 mi Calm Calm - N/A   Clear
6:53 AM 43.0 °F 41.3 °F 37.0 °F 80% 30.13 in 10.0 mi SE 3.5 mph - N/A   Clear
7:53 AM 46.0 °F 44.8 °F 39.9 °F 79% 30.17 in 10.0 mi SE 3.5 mph - N/A   Clear
8:53 AM 52.0 °F - 37.9 °F 59% 30.18 in 10.0 mi East 4.6 mph - N/A   Clear
9:53 AM 57.0 °F - 37.0 °F 47% 30.18 in 10.0 mi East 6.9 mph - N/A   Clear
10:53 AM 62.1 °F - 36.0 °F 38% 30.18 in 10.0 mi SE 6.9 mph - N/A   Clear
11:53 AM 66.0 °F - 35.1 °F 32% 30.15 in 10.0 mi ESE 8.1 mph - N/A   Clear
12:53 PM 68.0 °F - 34.0 °F 28% 30.11 in 10.0 mi East 6.9 mph - N/A   Clear
1:53 PM 70.0 °F - 37.0 °F 30% 30.09 in 10.0 mi South 6.9 mph - N/A   Clear
2:53 PM 70.0 °F - 37.0 °F 30% 30.06 in 10.0 mi SE 6.9 mph - N/A   Clear
3:53 PM 72.0 °F - 37.9 °F 29% 30.04 in 10.0 mi ESE 5.8 mph - N/A   Clear
4:53 PM 68.0 °F - 42.1 °F 39% 30.04 in 10.0 mi SSE 6.9 mph - N/A   Clear
5:53 PM 63.0 °F - 46.0 °F 54% 30.04 in 10.0 mi SE 4.6 mph - N/A   Mostly Cloudy
6:53 PM 62.1 °F - 43.0 °F 50% 30.03 in 10.0 mi East 4.6 mph - N/A   Clear
7:53 PM 60.1 °F - 50.0 °F 69% 30.03 in 10.0 mi NNE 5.8 mph - 0.00 in Rain Light Rain
8:53 PM 61.0 °F - 45.0 °F 56% 30.05 in 10.0 mi ENE 5.8 mph - 0.00 in Thunderstorm Overcast
9:09 PM 59.0 °F - 46.4 °F 63% 30.03 in 10.0 mi NNE 8.1 mph - 0.00 in Rain Light Rain
9:25 PM 59.0 °F - 46.4 °F 63% 30.04 in 10.0 mi NE 6.9 mph - 0.00 in Rain , Thunderstorm Light Rain
9:40 PM 57.2 °F - 46.4 °F 67% 30.04 in 5.0 mi NE 6.9 mph - 0.03 in Rain Heavy Rain
9:53 PM 55.9 °F - 48.0 °F 75% 30.05 in 10.0 mi NE 10.4 mph - 0.04 in Rain Light Rain
10:53 PM 55.9 °F - 46.0 °F 69% 30.03 in 10.0 mi ENE 9.2 mph - 0.00 in   Overcast
11:53 PM 54.0 °F - 48.9 °F 83% 30.04 in 10.0 mi NNE 5.8 mph - N/A   Overcast